QPF
0.00 0.00 0.00 0.00 0.00 0.00 0.00 0.00 0.00 0.00 0.00 0.00 0.00 0.00 0.00 0.00 0.00 0.01 0.01 0.00 0.00 0.02 0.04 0.07 0.10 0.15 0.14 0.18 0.19 0.16 0.17 0.19 0.17 0.14 0.13 0.13 0.10 0.09 0.08 0.08 0.06 0.07 0.07 0.06
0.00 0.00 0.00 0.00 0.00 0.00 0.00 0.00 0.00 0.00 0.00 0.00 0.00 0.00 0.00 0.00 0.00 0.01 0.00 0.00 0.01 0.01 0.03 0.06 0.08 0.14 0.11 0.10 0.12 0.12 0.12 0.16 0.13 0.12 0.14 0.13 0.11 0.09 0.08 0.08 0.06 0.05 0.05 0.04
0.00 0.00 0.00 0.00 0.00 0.00 0.00 0.00 0.00 0.00 0.00 0.00 0.00 0.00 0.00 0.00 0.00 0.01 0.00 0.00 0.00 0.01 0.02 0.03 0.03 0.05 0.06 0.06 0.09 0.09 0.10 0.12 0.15 0.14 0.14 0.14 0.12 0.09 0.07 0.07 0.05 0.04 0.03 0.02
0.00 0.00 0.00 0.00 0.00 0.00 0.00 0.00 0.00 0.00 0.00 0.00 0.00 0.00 0.00 0.00 0.00 0.00 0.00 0.00 0.00 0.01 0.01 0.02 0.02 0.02 0.03 0.05 0.08 0.09 0.11 0.12 0.14 0.15 0.12 0.11 0.08 0.07 0.07 0.07 0.06 0.05 0.04 0.03
0.00 0.00 0.00 0.00 0.00 0.00 0.00 0.00 0.00 0.00 0.00 0.00 0.00 0.00 0.00 0.00 0.00 0.00 0.00 0.00 0.00 0.01 0.02 0.02 0.01 0.01 0.03 0.03 0.05 0.08 0.11 0.13 0.14 0.15 0.15 0.15 0.11 0.09 0.09 0.07 0.05 0.04 0.03 0.02
0.00 0.00 0.00 0.00 0.00 0.00 0.00 0.00 0.00 0.00 0.00 0.00 0.00 0.00 0.00 0.00 0.00 0.00 0.00 0.00 0.00 0.00 0.01 0.01 0.01 0.01 0.02 0.02 0.03 0.05 0.07 0.11 0.12 0.16 0.18 0.17 0.13 0.10 0.07 0.06 0.04 0.03 0.03 0.02
0.00 0.00 0.00 0.00 0.00 0.00 0.00 0.00 0.00 0.00 0.00 0.00 0.00 0.00 0.00 0.00 0.00 0.00 0.00 0.00 0.00 0.00 0.01 0.01 0.01 0.01 0.01 0.02 0.04 0.04 0.06 0.08 0.10 0.13 0.15 0.16 0.13 0.10 0.08 0.06 0.04 0.02 0.02 0.02
0.00 0.00 0.00 0.00 0.00 0.00 0.00 0.00 0.00 0.00 0.00 0.00 0.00 0.00 0.00 0.00 0.00 0.00 0.00 0.00 0.00 0.00 0.00 0.01 0.01 0.01 0.01 0.02 0.04 0.04 0.06 0.07 0.07 0.09 0.11 0.12 0.11 0.08 0.06 0.05 0.03 0.02 0.01 0.02
0.00 0.00 0.00 0.00 0.00 0.00 0.00 0.00 0.00 0.00 0.00 0.00 0.00 0.00 0.00 0.00 0.00 0.00 0.00 0.00 0.00 0.00 0.00 0.00 0.00 0.01 0.01 0.02 0.04 0.04 0.05 0.05 0.05 0.08 0.09 0.09 0.08 0.07 0.06 0.04 0.03 0.02 0.02 0.02
0.00 0.00 0.00 0.00 0.00 0.00 0.00 0.00 0.00 0.00 0.00 0.00 0.00 0.00 0.00 0.00 0.00 0.00 0.00 0.00 0.00 0.00 0.00 0.00 0.00 0.01 0.01 0.02 0.04 0.03 0.04 0.04 0.04 0.06 0.07 0.06 0.06 0.06 0.06 0.06 0.04 0.04 0.04 0.03
0.00 0.00 0.00 0.00 0.00 0.00 0.00 0.00 0.00 0.00 0.00 0.00 0.00 0.00 0.00 0.00 0.00 0.00 0.00 0.00 0.00 0.00 0.00 0.00 0.00 0.00 0.00 0.01 0.02 0.02 0.03 0.03 0.03 0.04 0.04 0.05 0.05 0.05 0.05 0.05 0.05 0.06 0.05 0.04
0.00 0.00 0.00 0.00 0.00 0.00 0.00 0.00 0.00 0.00 0.00 0.00 0.00 0.00 0.00 0.00 0.00 0.00 0.00 0.00 0.00 0.00 0.00 0.00 0.00 0.00 0.00 0.00 0.00 0.01 0.01 0.01 0.02 0.03 0.03 0.04 0.05 0.03 0.03 0.03 0.04 0.04 0.03 0.03
0.00 0.00 0.00 0.00 0.00 0.00 0.00 0.00 0.00 0.00 0.00 0.00 0.00 0.00 0.00 0.00 0.00 0.00 0.00 0.00 0.00 0.00 0.00 0.00 0.00 0.00 0.00 0.00 0.00 0.00 0.00 0.01 0.01 0.01 0.01 0.02 0.03 0.03 0.03 0.04 0.04 0.04 0.04 0.03
0.00 0.00 0.00 0.00 0.00 0.00 0.00 0.00 0.00 0.00 0.00 0.00 0.00 0.00 0.00 0.00 0.00 0.00 0.00 0.00 0.00 0.00 0.00 0.00 0.00 0.00 0.01 0.00 0.00 0.00 0.00 0.00 0.00 0.00 0.01 0.01 0.03 0.05 0.06 0.07 0.08 0.06 0.05 0.05
0.00 0.00 0.00 0.00 0.00 0.00 0.00 0.00 0.00 0.00 0.00 0.00 0.00 0.00 0.00 0.00 0.00 0.00 0.00 0.00 0.00 0.01 0.01 0.01 0.00 0.00 0.00 0.00 0.00 0.00 0.00 0.01 0.00 0.01 0.01 0.01 0.02 0.03 0.03 0.04 0.05 0.04 0.03 0.03
0.00 0.00 0.00 0.00 0.00 0.00 0.00 0.00 0.00 0.00 0.00 0.00 0.00 0.00 0.00 0.00 0.00 0.00 0.00 0.00 0.00 0.00 0.00 0.01 0.01 0.01 0.01 0.01 0.01 0.00 0.01 0.01 0.01 0.01 0.01 0.02 0.02 0.02 0.02 0.03 0.02 0.02 0.02 0.02
0.00 0.00 0.00 0.00 0.00 0.00 0.00 0.00 0.00 0.00 0.00 0.00 0.00 0.00 0.00 0.00 0.00 0.00 0.00 0.00 0.01 0.00 0.01 0.01 0.02 0.02 0.01 0.01 0.01 0.02 0.02 0.02 0.02 0.02 0.03 0.02 0.02 0.02 0.02 0.03 0.03 0.02 0.02 0.02
0.00 0.00 0.01 0.01 0.01 0.01 0.00 0.00 0.00 0.00 0.00 0.00 0.00 0.00 0.00 0.00 0.00 0.00 0.01 0.01 0.01 0.01 0.02 0.02 0.02 0.02 0.01 0.01 0.01 0.01 0.01 0.01 0.02 0.02 0.03 0.03 0.03 0.02 0.02 0.02 0.02 0.03 0.03 0.03
0.00 0.00 0.01 0.01 0.01 0.00 0.01 0.01 0.00 0.01 0.00 0.00 0.00 0.00 0.00 0.01 0.01 0.01 0.02 0.01 0.01 0.02 0.02 0.02 0.02 0.02 0.02 0.01 0.00 0.00 0.01 0.01 0.01 0.02 0.03 0.03 0.03 0.03 0.03 0.03 0.03 0.03 0.04 0.04
0.01 0.01 0.01 0.02 0.02 0.01 0.01 0.01 0.01 0.02 0.02 0.01 0.00 0.01 0.01 0.02 0.03 0.03 0.03 0.02 0.01 0.02 0.01 0.02 0.01 0.01 0.01 0.01 0.01 0.02 0.02 0.02 0.02 0.02 0.03 0.03 0.03 0.03 0.03 0.04 0.05 0.05 0.04 0.04
0.02 0.02 0.02 0.02 0.02 0.02 0.01 0.01 0.02 0.04 0.03 0.02 0.01 0.02 0.03 0.04 0.05 0.05 0.03 0.02 0.02 0.01 0.01 0.02 0.02 0.02 0.01 0.01 0.01 0.02 0.02 0.02 0.02 0.02 0.03 0.03 0.03 0.03 0.03 0.03 0.04 0.04 0.04 0.04
0.04 0.05 0.04 0.04 0.03 0.03 0.02 0.04 0.05 0.05 0.04 0.03 0.03 0.05 0.06 0.06 0.06 0.05 0.04 0.03 0.02 0.01 0.01 0.01 0.02 0.02 0.02 0.01 0.01 0.01 0.01 0.02 0.02 0.01 0.02 0.02 0.02 0.02 0.03 0.03 0.03 0.04 0.04 0.04
0.05 0.06 0.07 0.06 0.04 0.04 0.04 0.07 0.06 0.05 0.05 0.05 0.07 0.08 0.08 0.07 0.07 0.08 0.07 0.04 0.04 0.03 0.02 0.01 0.02 0.03 0.03 0.02 0.01 0.01 0.02 0.01 0.01 0.01 0.02 0.01 0.02 0.02 0.02 0.02 0.03 0.03 0.04 0.04
0.05 0.05 0.06 0.06 0.05 0.05 0.06 0.07 0.06 0.07 0.07 0.07 0.09 0.10 0.11 0.08 0.08 0.10 0.12 0.09 0.06 0.05 0.02 0.02 0.02 0.02 0.03 0.03 0.03 0.03 0.02 0.01 0.02 0.02 0.01 0.01 0.01 0.02 0.02 0.02 0.02 0.03 0.03 0.03
0.07 0.06 0.06 0.07 0.07 0.07 0.09 0.08 0.07 0.08 0.10 0.12 0.13 0.14 0.14 0.11 0.08 0.08 0.08 0.06 0.04 0.03 0.02 0.02 0.02 0.02 0.03 0.03 0.04 0.03 0.02 0.02 0.02 0.01 0.01 0.01 0.01 0.01 0.01 0.02 0.03 0.05 0.05 0.06
0.11 0.12 0.11 0.10 0.10 0.11 0.12 0.11 0.08 0.10 0.15 0.15 0.13 0.10 0.11 0.09 0.08 0.05 0.04 0.03 0.02 0.03 0.04 0.04 0.04 0.03 0.04 0.04 0.03 0.02 0.02 0.02 0.01 0.01 0.00 0.00 0.00 0.01 0.01 0.02 0.03 0.04 0.04 0.05
MSLP
1010.20 1010.57 1010.81 1010.91 1010.90 1010.77 1010.56 1010.30 1009.99 1009.66 1009.31 1008.98 1008.67 1008.41 1008.21 1008.10 1008.06 1008.10 1008.21 1008.36 1008.55 1008.75 1008.97 1009.21 1009.49 1009.81 1010.20 1010.65 1011.16 1011.70 1012.26 1012.79 1013.28 1013.72 1014.10 1014.45 1014.78 1015.14 1015.53 1015.96 1016.43 1016.90 1017.35 1017.73
1010.35 1010.64 1010.81 1010.87 1010.85 1010.75 1010.61 1010.42 1010.20 1009.93 1009.62 1009.29 1008.96 1008.65 1008.40 1008.23 1008.16 1008.20 1008.33 1008.53 1008.77 1009.02 1009.27 1009.50 1009.73 1009.98 1010.27 1010.62 1011.04 1011.52 1012.05 1012.59 1013.13 1013.63 1014.09 1014.51 1014.90 1015.28 1015.68 1016.10 1016.54 1016.98 1017.41 1017.78
1010.25 1010.46 1010.56 1010.60 1010.59 1010.56 1010.51 1010.44 1010.32 1010.14 1009.89 1009.56 1009.19 1008.81 1008.47 1008.21 1008.08 1008.08 1008.21 1008.43 1008.72 1009.03 1009.32 1009.57 1009.79 1010.00 1010.22 1010.49 1010.84 1011.26 1011.77 1012.32 1012.90 1013.47 1014.01 1014.51 1014.96 1015.38 1015.79 1016.19 1016.60 1017.02 1017.41 1017.77
1009.89 1010.01 1010.07 1010.09 1010.13 1010.19 1010.27 1010.34 1010.36 1010.29 1010.10 1009.79 1009.38 1008.91 1008.46 1008.08 1007.84 1007.77 1007.87 1008.11 1008.44 1008.80 1009.16 1009.46 1009.71 1009.92 1010.11 1010.34 1010.63 1011.02 1011.49 1012.06 1012.67 1013.29 1013.90 1014.46 1014.97 1015.42 1015.83 1016.23 1016.61 1016.99 1017.36 1017.70
1009.33 1009.38 1009.39 1009.43 1009.53 1009.71 1009.94 1010.17 1010.35 1010.41 1010.29 1010.00 1009.54 1008.99 1008.41 1007.90 1007.54 1007.38 1007.42 1007.65 1008.01 1008.44 1008.88 1009.26 1009.58 1009.82 1010.03 1010.25 1010.52 1010.88 1011.34 1011.89 1012.51 1013.17 1013.81 1014.41 1014.95 1015.42 1015.84 1016.21 1016.57 1016.91 1017.25 1017.58
1008.68 1008.65 1008.65 1008.71 1008.89 1009.18 1009.57 1009.97 1010.30 1010.49 1010.46 1010.19 1009.71 1009.08 1008.38 1007.74 1007.25 1006.98 1006.96 1007.17 1007.56 1008.05 1008.58 1009.07 1009.48 1009.80 1010.06 1010.31 1010.58 1010.92 1011.36 1011.89 1012.50 1013.15 1013.80 1014.41 1014.96 1015.43 1015.83 1016.17 1016.49 1016.80 1017.11 1017.43
1008.05 1007.97 1007.94 1008.03 1008.27 1008.68 1009.19 1009.74 1010.22 1010.52 1010.58 1010.35 1009.86 1009.17 1008.39 1007.64 1007.04 1006.67 1006.58 1006.76 1007.17 1007.73 1008.35 1008.95 1009.47 1009.90 1010.24 1010.54 1010.83 1011.17 1011.59 1012.09 1012.67 1013.29 1013.91 1014.50 1015.02 1015.46 1015.83 1016.14 1016.41 1016.68 1016.96 1017.26
1007.54 1007.41 1007.36 1007.46 1007.75 1008.22 1008.83 1009.49 1010.07 1010.48 1010.61 1010.43 1009.96 1009.25 1008.42 1007.60 1006.92 1006.48 1006.34 1006.49 1006.91 1007.52 1008.21 1008.91 1009.55 1010.09 1010.53 1010.89 1011.23 1011.58 1011.98 1012.45 1012.99 1013.56 1014.13 1014.67 1015.15 1015.55 1015.87 1016.13 1016.36 1016.58 1016.83 1017.10
1007.20 1007.03 1006.96 1007.05 1007.34 1007.83 1008.48 1009.18 1009.82 1010.29 1010.48 1010.36 1009.93 1009.25 1008.42 1007.59 1006.88 1006.40 1006.22 1006.36 1006.78 1007.41 1008.16 1008.93 1009.66 1010.30 1010.83 1011.27 1011.66 1012.03 1012.43 1012.88 1013.38 1013.90 1014.41 1014.90 1015.32 1015.66 1015.93 1016.14 1016.33 1016.51 1016.72 1016.96
1007.03 1006.83 1006.73 1006.78 1007.04 1007.49 1008.10 1008.78 1009.42 1009.90 1010.14 1010.07 1009.71 1009.09 1008.33 1007.54 1006.85 1006.38 1006.19 1006.32 1006.72 1007.35 1008.12 1008.93 1009.71 1010.42 1011.02 1011.53 1011.97 1012.38 1012.80 1013.24 1013.71 1014.19 1014.66 1015.09 1015.46 1015.76 1015.99 1016.16 1016.30 1016.44 1016.61 1016.82
1007.01 1006.79 1006.65 1006.64 1006.82 1007.17 1007.68 1008.27 1008.85 1009.29 1009.54 1009.52 1009.24 1008.73 1008.08 1007.39 1006.78 1006.36 1006.19 1006.31 1006.69 1007.28 1008.02 1008.82 1009.61 1010.34 1010.98 1011.53 1012.03 1012.48 1012.93 1013.38 1013.85 1014.31 1014.76 1015.16 1015.50 1015.77 1015.96 1016.10 1016.21 1016.33 1016.46 1016.65
1007.08 1006.86 1006.68 1006.61 1006.67 1006.89 1007.25 1007.69 1008.13 1008.50 1008.72 1008.74 1008.54 1008.16 1007.65 1007.11 1006.63 1006.29 1006.17 1006.28 1006.62 1007.15 1007.82 1008.55 1009.29 1010.00 1010.64 1011.22 1011.75 1012.25 1012.73 1013.22 1013.70 1014.18 1014.62 1015.02 1015.35 1015.61 1015.79 1015.92 1016.02 1016.11 1016.23 1016.39
1007.21 1007.01 1006.82 1006.67 1006.61 1006.67 1006.84 1007.09 1007.36 1007.61 1007.77 1007.79 1007.68 1007.43 1007.08 1006.71 1006.38 1006.16 1006.10 1006.21 1006.51 1006.96 1007.52 1008.15 1008.80 1009.43 1010.04 1010.61 1011.15 1011.68 1012.20 1012.73 1013.25 1013.75 1014.22 1014.63 1014.97 1015.24 1015.43 1015.56 1015.66 1015.76 1015.87 1016.02
1007.40 1007.24 1007.05 1006.85 1006.68 1006.57 1006.53 1006.57 1006.65 1006.73 1006.80 1006.81 1006.75 1006.62 1006.44 1006.25 1006.09 1006.00 1006.01 1006.14 1006.40 1006.75 1007.19 1007.69 1008.21 1008.74 1009.27 1009.80 1010.33 1010.87 1011.43 1011.99 1012.55 1013.09 1013.58 1014.02 1014.38 1014.67 1014.87 1015.03 1015.14 1015.25 1015.37 1015.52
1007.65 1007.57 1007.40 1007.17 1006.91 1006.65 1006.41 1006.22 1006.09 1006.00 1005.95 1005.91 1005.88 1005.85 1005.83 1005.81 1005.82 1005.87 1005.97 1006.13 1006.35 1006.62 1006.94 1007.29 1007.67 1008.08 1008.51 1008.97 1009.47 1010.00 1010.56 1011.15 1011.73 1012.30 1012.82 1013.27 1013.66 1013.95 1014.18 1014.36 1014.50 1014.63 1014.77 1014.93
1007.98 1007.99 1007.88 1007.64 1007.31 1006.92 1006.50 1006.11 1005.76 1005.49 1005.31 1005.21 1005.19 1005.23 1005.33 1005.48 1005.65 1005.84 1006.04 1006.25 1006.46 1006.66 1006.87 1007.10 1007.34 1007.61 1007.93 1008.31 1008.75 1009.25 1009.80 1010.38 1010.97 1011.54 1012.06 1012.52 1012.91 1013.22 1013.46 1013.65 1013.82 1013.98 1014.15 1014.34
1008.39 1008.49 1008.43 1008.21 1007.84 1007.35 1006.78 1006.21 1005.68 1005.24 1004.92 1004.75 1004.71 1004.82 1005.02 1005.30 1005.63 1005.96 1006.27 1006.54 1006.76 1006.94 1007.08 1007.19 1007.32 1007.48 1007.69 1007.98 1008.35 1008.79 1009.30 1009.85 1010.42 1010.97 1011.48 1011.92 1012.29 1012.60 1012.84 1013.04 1013.22 1013.41 1013.61 1013.84
1008.82 1009.00 1008.99 1008.79 1008.39 1007.83 1007.16 1006.45 1005.77 1005.19 1004.76 1004.52 1004.48 1004.62 1004.91 1005.32 1005.78 1006.25 1006.68 1007.03 1007.30 1007.48 1007.58 1007.63 1007.68 1007.74 1007.87 1008.07 1008.36 1008.74 1009.19 1009.70 1010.22 1010.72 1011.19 1011.59 1011.93 1012.22 1012.45 1012.65 1012.84 1013.05 1013.29 1013.55
1009.20 1009.41 1009.44 1009.24 1008.83 1008.22 1007.48 1006.68 1005.90 1005.24 1004.74 1004.47 1004.43 1004.61 1004.99 1005.51 1006.09 1006.69 1007.23 1007.69 1008.02 1008.23 1008.34 1008.37 1008.36 1008.37 1008.43 1008.56 1008.78 1009.10 1009.49 1009.93 1010.39 1010.84 1011.25 1011.61 1011.91 1012.16 1012.37 1012.57 1012.77 1013.00 1013.26 1013.57
1009.44 1009.63 1009.64 1009.43 1009.00 1008.37 1007.60 1006.77 1005.96 1005.27 1004.77 1004.50 1004.49 1004.74 1005.20 1005.82 1006.52 1007.23 1007.89 1008.44 1008.85 1009.12 1009.26 1009.29 1009.28 1009.26 1009.28 1009.36 1009.53 1009.78 1010.11 1010.49 1010.89 1011.28 1011.64 1011.95 1012.22 1012.44 1012.63 1012.83 1013.04 1013.29 1013.58 1013.92
1009.45 1009.57 1009.52 1009.27 1008.82 1008.19 1007.43 1006.62 1005.86 1005.21 1004.77 1004.56 1004.63 1004.96 1005.51 1006.22 1007.03 1007.84 1008.59 1009.22 1009.71 1010.04 1010.22 1010.29 1010.29 1010.27 1010.27 1010.33 1010.46 1010.67 1010.95 1011.28 1011.63 1011.97 1012.29 1012.56 1012.80 1013.00 1013.20 1013.39 1013.62 1013.90 1014.22 1014.58
1009.21 1009.21 1009.06 1008.75 1008.28 1007.66 1006.96 1006.24 1005.58 1005.05 1004.72 1004.64 1004.82 1005.25 1005.90 1006.70 1007.58 1008.47 1009.29 1009.99 1010.54 1010.92 1011.14 1011.25 1011.27 1011.27 1011.27 1011.32 1011.44 1011.62 1011.87 1012.16 1012.47 1012.78 1013.07 1013.33 1013.55 1013.76 1013.96 1014.18 1014.43 1014.73 1015.08 1015.47
1008.76 1008.60 1008.34 1007.96 1007.47 1006.90 1006.28 1005.69 1005.19 1004.84 1004.68 1004.76 1005.09 1005.64 1006.38 1007.26 1008.20 1009.13 1009.99 1010.72 1011.29 1011.71 1011.97 1012.10 1012.16 1012.18 1012.20 1012.25 1012.36 1012.53 1012.76 1013.03 1013.32 1013.61 1013.88 1014.14 1014.37 1014.59 1014.81 1015.06 1015.34 1015.68 1016.05 1016.47
1008.21 1007.89 1007.50 1007.06 1006.56 1006.05 1005.56 1005.14 1004.84 1004.70 1004.75 1005.02 1005.51 1006.18 1007.01 1007.94 1008.90 1009.83 1010.69 1011.41 1011.99 1012.41 1012.69 1012.85 1012.93 1012.98 1013.02 1013.09 1013.20 1013.36 1013.58 1013.83 1014.10 1014.38 1014.64 1014.90 1015.14 1015.39 1015.65 1015.93 1016.25 1016.61 1017.01 1017.44
1007.69 1007.23 1006.74 1006.25 1005.77 1005.35 1005.00 1004.77 1004.68 1004.77 1005.04 1005.49 1006.13 1006.91 1007.80 1008.74 1009.70 1010.60 1011.41 1012.10 1012.66 1013.07 1013.35 1013.53 1013.63 1013.70 1013.76 1013.85 1013.96 1014.12 1014.32 1014.55 1014.80 1015.06 1015.32 1015.57 1015.83 1016.09 1016.38 1016.69 1017.04 1017.42 1017.84 1018.28
1007.36 1006.79 1006.24 1005.73 1005.30 1004.97 1004.77 1004.73 1004.85 1005.15 1005.61 1006.23 1006.98 1007.84 1008.75 1009.68 1010.59 1011.43 1012.18 1012.82 1013.33 1013.72 1014.00 1014.19 1014.32 1014.41 1014.50 1014.59 1014.71 1014.85 1015.03 1015.23 1015.45 1015.67 1015.91 1016.15 1016.41 1016.68 1016.97 1017.30 1017.67 1018.07 1018.49 1018.92
Thickness
5789 5781 5778 5787 5792 5792 5788 5783 5784 5793 5804 5799 5798 5799 5803 5804 5799 5793 5788 5783 5777 5773 5771 5765 5760 5756 5750 5745 5741 5739 5736 5734 5733 5731 5730 5729 5730 5730 5731 5731 5730 5729 5728 5727
5774 5774 5789 5794 5790 5784 5781 5778 5783 5793 5800 5796 5794 5797 5803 5800 5795 5791 5786 5781 5776 5771 5767 5761 5757 5753 5749 5744 5741 5738 5737 5736 5734 5733 5731 5730 5730 5729 5730 5729 5728 5728 5727 5726
5773 5786 5793 5785 5779 5774 5777 5778 5782 5783 5792 5797 5790 5793 5796 5797 5795 5791 5787 5783 5779 5771 5765 5760 5756 5753 5749 5745 5742 5741 5738 5736 5734 5733 5731 5728 5726 5727 5727 5726 5727 5727 5727 5727
5777 5788 5782 5776 5776 5776 5772 5787 5784 5781 5779 5786 5784 5772 5791 5794 5789 5787 5785 5782 5777 5773 5767 5762 5757 5754 5750 5747 5744 5741 5739 5736 5734 5733 5731 5728 5726 5726 5728 5728 5728 5726 5726 5726
5773 5780 5775 5770 5778 5781 5781 5787 5783 5782 5778 5777 5784 5773 5788 5793 5784 5786 5786 5782 5779 5774 5769 5763 5759 5755 5752 5749 5745 5742 5739 5737 5735 5733 5731 5728 5729 5729 5729 5728 5726 5725 5725 5725
5780 5785 5783 5783 5788 5788 5785 5778 5778 5779 5779 5762 5776 5769 5776 5792 5788 5788 5787 5782 5778 5774 5769 5764 5760 5756 5752 5749 5745 5742 5738 5735 5734 5732 5731 5729 5730 5729 5727 5726 5725 5725 5725 5725
5764 5774 5784 5787 5777 5779 5777 5765 5755 5754 5757 5763 5780 5769 5778 5795 5796 5793 5788 5783 5779 5774 5768 5762 5758 5754 5751 5747 5744 5741 5737 5734 5733 5731 5730 5730 5730 5729 5727 5727 5726 5727 5727 5727
5753 5759 5779 5783 5777 5774 5773 5771 5752 5744 5752 5769 5774 5768 5787 5798 5797 5795 5791 5787 5779 5774 5769 5764 5760 5756 5751 5748 5745 5741 5737 5735 5734 5732 5731 5731 5730 5730 5730 5729 5730 5729 5730 5730
5760 5761 5780 5784 5787 5781 5770 5770 5785 5769 5764 5757 5770 5780 5791 5794 5791 5789 5787 5783 5778 5775 5770 5766 5761 5758 5754 5750 5747 5743 5739 5735 5734 5733 5731 5730 5730 5731 5732 5730 5729 5730 5729 5729
5769 5757 5772 5780 5781 5779 5782 5783 5770 5761 5744 5743 5760 5770 5778 5783 5785 5787 5784 5782 5780 5777 5773 5768 5764 5760 5757 5753 5748 5745 5741 5736 5734 5733 5732 5732 5731 5730 5730 5729 5728 5728 5728 5727
5768 5754 5762 5768 5765 5769 5766 5767 5766 5767 5765 5748 5747 5767 5794 5791 5791 5788 5786 5785 5782 5779 5775 5770 5765 5762 5758 5754 5749 5745 5741 5737 5734 5733 5732 5732 5730 5730 5730 5728 5728 5727 5726 5725
5760 5756 5754 5763 5776 5779 5775 5772 5767 5751 5751 5757 5754 5770 5798 5796 5796 5792 5788 5785 5783 5780 5776 5771 5766 5762 5757 5753 5750 5746 5743 5739 5737 5735 5733 5731 5730 5730 5729 5729 5729 5728 5726 5725
5749 5743 5735 5744 5754 5762 5762 5769 5771 5769 5764 5757 5752 5767 5789 5791 5790 5789 5785 5782 5779 5777 5774 5771 5766 5761 5757 5754 5751 5748 5745 5742 5739 5737 5734 5732 5731 5730 5729 5731 5730 5727 5725 5724
5743 5738 5736 5738 5750 5756 5752 5757 5762 5760 5753 5755 5761 5770 5779 5781 5780 5781 5780 5777 5776 5773 5771 5768 5764 5760 5758 5755 5751 5748 5746 5745 5742 5738 5735 5732 5731 5730 5730 5730 5729 5726 5724 5723
5733 5728 5735 5743 5749 5750 5749 5751 5754 5752 5756 5755 5764 5769 5777 5780 5777 5776 5775 5773 5770 5767 5765 5763 5761 5758 5755 5752 5750 5748 5746 5745 5743 5739 5737 5735 5733 5732 5730 5729 5728 5726 5724 5722
5720 5716 5722 5725 5737 5739 5738 5746 5750 5750 5754 5756 5759 5763 5777 5777 5774 5769 5768 5766 5763 5761 5760 5758 5756 5754 5751 5749 5747 5746 5745 5744 5742 5738 5736 5735 5733 5731 5729 5728 5726 5724 5722 5720
5711 5705 5704 5711 5726 5724 5721 5740 5745 5748 5754 5754 5751 5762 5768 5763 5760 5759 5759 5758 5757 5756 5754 5752 5751 5749 5747 5746 5745 5743 5743 5741 5739 5736 5734 5733 5731 5729 5727 5726 5723 5721 5718 5716
5696 5694 5697 5703 5704 5690 5729 5749 5747 5743 5749 5756 5757 5760 5759 5755 5751 5750 5751 5751 5749 5748 5747 5745 5745 5744 5744 5744 5743 5742 5741 5738 5735 5733 5731 5729 5727 5726 5724 5721 5719 5716 5714 5712
5692 5686 5687 5691 5691 5702 5722 5731 5731 5727 5732 5747 5748 5748 5746 5743 5739 5735 5738 5740 5739 5738 5737 5737 5739 5739 5738 5738 5737 5736 5734 5732 5729 5727 5725 5724 5723 5721 5719 5716 5713 5711 5708 5706
5682 5681 5679 5681 5675 5683 5708 5721 5726 5719 5715 5735 5737 5734 5733 5733 5729 5724 5725 5726 5726 5727 5728 5728 5729 5729 5729 5729 5730 5727 5724 5722 5720 5719 5718 5717 5716 5714 5712 5710 5707 5705 5701 5698
5669 5668 5669 5671 5672 5689 5704 5710 5711 5694 5706 5719 5725 5725 5725 5726 5727 5718 5715 5713 5714 5715 5716 5717 5717 5717 5717 5719 5719 5716 5714 5711 5711 5710 5709 5708 5706 5705 5703 5701 5699 5696 5693 5689
5667 5666 5665 5667 5664 5675 5694 5696 5690 5692 5702 5708 5712 5715 5714 5710 5708 5704 5702 5701 5702 5703 5704 5705 5705 5704 5706 5707 5707 5704 5701 5700 5700 5699 5697 5696 5695 5695 5694 5690 5688 5685 5683 5679
5662 5664 5664 5663 5668 5678 5682 5681 5685 5689 5691 5697 5700 5702 5701 5696 5692 5690 5689 5689 5690 5690 5691 5692 5692 5691 5692 5693 5693 5690 5688 5689 5688 5686 5685 5683 5682 5681 5680 5679 5676 5674 5672 5670
5658 5659 5655 5656 5666 5670 5672 5676 5679 5683 5685 5689 5690 5689 5688 5684 5681 5678 5677 5676 5676 5677 5678 5680 5680 5679 5677 5678 5678 5677 5676 5676 5675 5673 5672 5671 5669 5667 5665 5665 5664 5662 5660 5657
5651 5651 5649 5649 5657 5661 5664 5666 5669 5672 5675 5676 5676 5676 5676 5673 5668 5666 5664 5663 5663 5664 5665 5666 5666 5665 5664 5664 5663 5663 5662 5662 5662 5660 5659 5658 5656 5653 5649 5646 5642 5642 5637 5636
5645 5643 5641 5643 5650 5650 5652 5656 5659 5659 5661 5663 5663 5662 5660 5660 5657 5655 5652 5651 5651 5652 5652 5652 5652 5652 5652 5651 5650 5650 5650 5650 5649 5648 5647 5646 5644 5641 5639 5635 5629 5619 5619 5615